FW7925 Weather Reports


time (UTC)temp
C
wind
direction
speed
KPH
gust
KPH
rain 1hr
cm
rain 24hr
cm
rain mn
cm
humidity
%
barometer
mb
20260506073101 -17 0.0 0.0 0.00 0.00 0.00 1012.0
20260506071555 -17 0.0 0.0 0.00 0.00 0.00 1011.8
20260506061602 -17 0.0 0.0 0.00 0.00 0.00 1013.0
20260506050110 -17 0.0 0.0 0.00 0.00 0.00 1012.8
20260506044557 -17 0.0 0.0 0.00 0.00 0.00 1012.4
20260506043101 -17 0.0 0.0 0.00 0.00 0.00 1012.7
20260506041557 18 0.0 0.0 0.00 0.00 0.00 100 1012.8
20260506040106 18 0 0.0 0.0 0.00 0.00 0.00 60 1012.9
20260506034604 18 0 0.0 0.0 0.00 0.00 0.00 59 1012.8
20260506033104 18 0 0.0 0.0 0.00 0.00 0.00 56 1012.9
20260506031600 19 0 0.0 0.0 0.00 0.00 0.00 55 1012.7
20260506024601 19 0 0.0 0.0 0.00 0.00 0.00 59 1012.8
20260506023100 19 0 0.0 0.0 0.00 0.00 0.00 57 1013.0
20260506021605 19 0 0.0 0.0 0.00 0.00 0.00 57 1012.8
20260506014601 19 0 0.0 0.0 0.00 0.00 0.00 57 1012.8
20260506013104 19 0 0.0 0.0 0.00 0.00 0.00 57 1012.4
20260506011605 19 0 0.0 0.0 0.00 0.00 0.00 57 1012.4
20260506010105 20 0 0.0 0.0 0.00 0.00 0.00 56 1012.3
20260506004604 20 0 0.0 0.0 0.00 0.00 0.00 54 1012.3
20260506003056 20 0 0.0 0.0 0.00 0.00 0.00 54 1012.5
20260506001555 21 0 0.0 0.0 0.00 0.00 0.00 52 1012.7
20260506000055 21 0 0.0 0.0 0.00 0.00 0.00 51 1012.7
20260505234607 21 0 0.0 0.0 0.00 0.00 0.00 51 1012.5
20260505233055 22 0 0.0 0.0 0.00 0.00 0.00 49 1012.5
20260505231607 22 0 0.0 0.0 0.00 0.00 0.00 49 1012.6
20260505230055 22 0 0.0 0.0 0.00 0.00 0.00 46 1012.3
20260505224556 22 0 0.0 1.6 0.00 0.00 0.00 48 1012.3
20260505223104 22 0 0.0 0.0 0.00 0.00 0.00 44 1012.4
20260505221559 23 0 0.0 1.6 0.00 0.00 0.00 46 1012.5
20260505220058 23 0 0.0 1.6 0.00 0.00 0.00 43 1012.3
20260505214616 23 0 0.0 1.6 0.00 0.00 0.00 45 1012.1
20260505213102 23 0 0.0 1.6 0.00 0.00 0.00 40 1012.2
20260505211606 23 0 0.0 1.6 0.00 0.00 0.00 41 1012.5
20260505210057 23 291 0.0 4.8 0.00 0.00 0.00 38 1012.5
20260505204556 23 0 0.0 3.2 0.00 0.00 0.00 40 1012.8
20260505203056 23 0 0.0 3.2 0.00 0.00 0.00 41 1012.9
20260505201556 23 265 0.0 4.8 0.00 0.00 0.00 41 1013.0
20260505194557 23 0 0.0 3.2 0.00 0.00 0.00 41 1013.4
20260505193056 23 271 0.0 1.6 0.00 0.00 0.00 44 1013.7
20260505191554 23 0 0.0 1.6 0.00 0.00 0.00 40 1013.9
20260505190056 23 0 0.0 1.6 0.00 0.00 0.00 43 1013.9
20260505184555 23 0 0.0 1.6 0.00 0.00 0.00 47 1014.0
20260505183104 23 0 0.0 4.8 0.00 0.00 0.00 41 1014.1
20260505181556 23 0 1.6 3.2 0.00 0.00 0.00 40 1014.2
20260505180059 23 0 0.0 4.8 0.00 0.00 0.00 41 1014.6
20260505174601 25 255 1.6 6.4 0.00 0.00 0.00 39 1015.0
20260505173054 25 0 0.0 1.6 0.00 0.00 0.00 40 1015.0
20260505171554 25 224 0.0 3.2 0.00 0.00 0.00 40 1015.4
20260505170057 25 91 0.0 1.6 0.00 0.00 0.00 41 1015.3
20260505164606 24 0 0.0 3.2 0.00 0.00 0.00 39 1015.3
20260505163056 23 226 0.0 4.8 0.00 0.00 0.00 42 1015.1
20260505161602 23 0 0.0 1.6 0.00 0.00 0.00 46 1015.2
20260505153108 20 0 0.0 0.0 0.00 0.00 0.00 62 1015.5
20260505151610 20 0 0.0 0.0 0.00 0.00 0.00 65 1015.5
20260505140113 16 0 0.0 0.0 0.00 0.00 0.00 75 1015.5
20260505124607 12 0 0.0 0.0 0.00 0.00 0.00 85 1015.2
20260505123055 12 0 0.0 0.0 0.00 0.00 0.00 84 1014.9
20260505121559 11 0 0.0 0.0 0.00 0.00 0.00 84 1014.5
20260505120055 -17 0 0.0 0.0 0.00 0.00 0.00 1014.7
20260505114559 -17 0.0 0.0 0.00 0.00 0.00 1014.6
20260505113115 -17 0.0 0.0 0.00 0.00 0.00 1014.3
20260505111554 -17 0.0 0.0 0.00 0.00 0.00 1013.9
20260505101557 -17 0.0 0.0 0.00 0.00 0.00 1013.8
20260505100053 -17 0.0 0.0 0.00 0.00 0.00 1013.9
20260505094556 -17 0.0 0.0 0.00 0.00 0.00 1014.1
20260505093100 -17 0.0 0.0 0.00 0.00 0.00 1013.8
20260505091605 -17 0.0 0.0 0.00 0.00 0.00 1013.7
20260505090057 -17 0.0 0.0 0.00 0.00 0.00 1014.1
20260505084555 -17 0.0 0.0 0.00 0.00 0.00 1014.1
20260505083100 -17 0.0 0.0 0.00 0.00 0.00 1014.2
20260505081605 -17 0.0 0.0 0.00 0.00 0.00 1014.1